Location: Unspecified
(44.0560°N, 0.0000°E)
Time: 00:40:24
(UTC+00:00)

Cosmos 1302 Rocket - Visible Passes

Search period start: 04 April 2026 00:00
Search period end: 14 April 2026 00:00
Orbit: 753 x 771 km, 74.0° (Epoch: 29 March)

Date Brightness Start Highest point End Pass type
(mag) Time Alt. Az. Time Alt. Az. Time Alt. Az.
4 Apr 5.4 03:07:45 19° SSE 03:10:39 33° E 03:15:15 10° NE visible
4 Apr 4.8 04:47:54 10° SW 04:52:31 33° WNW 04:57:13 10° N visible
5 Apr 6.2 02:29:56 15° SE 02:31:58 19° E 02:35:30 10° NE visible
5 Apr 4.1 04:10:05 21° SW 04:13:23 57° WNW 04:18:30 10° NNE visible
6 Apr 3.9 03:32:12 36° SSW 03:34:24 84° ESE 03:39:36 10° NNE visible
7 Apr 4.7 02:54:15 39° SE 02:55:31 48° ESE 03:00:29 10° NNE visible
7 Apr 5.2 04:34:24 14° WSW 04:37:41 24° WNW 04:41:53 10° N visible
8 Apr 5.5 02:16:15 27° ESE 02:16:45 27° E 02:21:04 10° NE visible
8 Apr 4.6 03:56:23 28° WSW 03:58:28 39° WNW 04:03:20 10° N visible
9 Apr 6.3 01:38:12 15° E 01:38:12 15° E 01:41:03 10° ENE visible
9 Apr 3.9 03:18:20 53° SW 03:19:23 68° WNW 03:24:34 10° NNE visible
10 Apr 4.0 02:40:14 69° SE 02:40:25 70° ESE 02:45:35 10° NNE visible
10 Apr 5.7 04:20:22 13° W 04:22:54 18° NW 04:26:23 10° N visible
11 Apr 5.0 02:02:06 38° E 02:02:06 38° E 02:06:23 10° NE visible
11 Apr 5.1 03:42:14 25° W 03:43:36 28° WNW 03:48:04 10° N visible
12 Apr 6.0 01:23:55 21° E 01:23:55 21° E 01:26:49 10° NE visible
12 Apr 4.3 03:04:03 46° WNW 03:04:25 47° WNW 03:09:26 10° N visible
13 Apr 6.6 00:45:43 11° ENE 00:45:43 11° ENE 00:46:23 10° ENE visible
13 Apr 4.0 02:25:50 73° N 02:25:50 73° N 02:30:35 10° NNE visible
13 Apr 6.0 04:05:58 10° WNW 04:08:11 13° NW 04:10:32 10° NNW visible
